Wind_Speed
22 28 29 34 34 29 42 37 38 38 40 40 29 29 30 30 29 29 29 28 27 28 27 27 28 29 29 29 28 28 29 29 28 27 26 25 24 23 23 23 21 21 23
26 27 29 36 38 44 39 36 36 37 37 38 36 36 33 33 34 34 32 32 30 30 28 27 28 30 30 28 27 27 27 28 28 27 24 23 23 21 20 20 19 18 17
27 28 30 33 41 41 36 36 37 35 39 41 43 39 37 36 38 38 37 36 35 32 31 30 27 27 28 28 26 27 28 27 27 25 22 21 23 19 17 19 17 20 18
28 27 28 28 36 39 37 37 39 41 40 46 47 42 42 41 40 41 40 39 38 34 33 29 28 28 25 27 27 28 28 26 27 25 21 22 23 21 17 19 18 18 18
27 23 25 27 32 38 38 37 40 44 45 43 45 43 44 43 44 43 40 38 40 39 34 31 30 29 27 27 28 28 29 27 26 25 23 23 23 23 19 21 19 17 16
21 20 21 22 23 24 26 28 30 36 35 32 36 42 45 41 39 48 45 44 43 46 41 35 33 33 32 31 31 33 29 29 26 26 24 24 23 23 21 20 20 20 19
12 15 23 25 22 20 19 21 23 22 20 21 21 28 43 44 43 38 41 45 46 44 38 36 36 36 35 38 35 32 30 28 27 26 25 23 22 20 19 17 17 18 18
12 14 26 20 17 15 15 15 17 19 23 26 23 21 21 27 31 30 38 45 41 39 37 36 38 42 40 42 47 42 29 25 26 28 26 24 21 20 20 19 18 18 18
4 1 18 18 14 16 8 11 12 15 16 20 22 23 22 20 19 22 20 40 44 41 36 37 35 35 43 56 51 40 41 38 28 27 26 25 24 24 21 21 20 19 19
9 11 10 10 6 7 6 6 8 9 11 10 11 16 12 14 15 17 19 17 28 38 35 38 38 45 52 43 38 38 32 26 29 33 31 27 26 27 25 25 23 21 20
10 12 11 9 7 5 4 2 2 3 2 3 5 9 11 13 14 17 16 18 20 23 28 29 31 20 21 29 33 26 28 27 32 32 29 29 30 28 29 28 27 25 23
9 9 9 8 6 5 5 4 4 3 2 1 1 1 2 4 7 9 14 12 12 16 20 19 17 13 16 16 30 34 31 32 39 41 37 36 34 33 31 31 34 30 28
3 3 3 4 4 4 4 3 2 2 1 1 2 2 2 4 6 7 6 6 11 16 17 22 21 19 18 15 19 29 44 50 50 47 51 52 40 39 37 35 41 43 27
1 1 0 3 1 1 1 1 2 2 3 4 3 2 3 3 4 4 6 8 8 9 11 14 15 14 11 12 14 17 18 18 26 34 36 32 45 45 44 53 52 59 47
3 2 1 2 1 1 1 2 2 3 2 4 4 5 6 7 7 6 8 9 9 11 12 13 13 14 17 18 21 22 22 22 24 27 28 28 29 35 39 38 34 39 46
1 2 1 1 1 0 0 1 2 3 3 4 3 4 5 6 7 8 10 11 13 14 14 15 16 18 20 20 20 20 21 21 22 24 25 27 29 32 33 35 39 42 44
1 2 3 2 0 1 1 1 1 2 4 4 5 6 6 6 7 9 10 11 12 13 14 16 17 18 20 21 22 23 23 23 23 24 25 27 29 30 32 33 34 36 38
1 1 1 1 0 1 0 1 2 2 3 4 5 6 8 9 10 11 11 12 13 14 15 17 17 18 18 19 20 21 22 23 24 25 26 28 29 31 33 34 34 36 37
3 2 1 1 1 2 2 3 3 3 5 6 7 7 8 9 10 11 12 14 15 15 17 17 17 18 20 21 22 22 23 23 24 25 25 26 28 30 31 32 34 36 37
3 3 3 3 3 3 3 4 5 5 6 7 8 10 12 12 12 13 13 13 15 16 17 18 20 21 22 22 23 24 24 24 25 26 27 26 27 28 28 28 30 33 35
5 6 6 6 7 8 9 10 10 11 11 11 12 14 13 14 15 15 15 15 15 16 17 18 20 22 22 23 24 24 24 23 24 24 24 24 24 25 26 27 27 28 31
8 10 10 11 11 12 12 12 13 14 15 16 15 15 18 17 17 16 16 17 18 18 18 19 20 22 23 24 25 26 27 27 27 26 26 27 27 27 28 29 30 29 31
8 10 10 10 12 13 13 13 14 16 16 16 17 18 16 17 19 20 18 17 17 18 20 22 22 23 26 26 27 28 29 29 29 29 29 29 30 30 30 30 33 33 32
9 12 13 12 13 14 13 15 16 18 20 21 20 21 20 20 18 19 22 21 22 21 22 24 24 25 25 27 27 28 29 27 24 25 29 31 31 31 31 30 33 31 32
14 16 16 16 17 17 19 19 20 20 20 21 23 25 25 25 27 25 24 25 23 24 25 26 26 27 26 25 27 27 25 27 29 32 33 33 30 26 25 27 30 31 28
20 21 22 25 26 25 24 25 26 26 25 25 26 27 28 28 30 32 33 33 34 35 35 32 32 33 36 34 32 30 30 27 26 27 29 29 29 25 24 25 29 28 23
Wind_Direction
273 249 239 236 232 222 226 237 242 246 236 243 243 241 246 251 251 249 247 243 242 249 251 259 264 263 262 264 266 264 264 268 271 271 270 273 278 279 281 283 285 291 292
275 257 247 239 237 239 234 240 239 240 241 237 244 235 236 241 248 248 248 252 242 244 249 252 255 259 262 262 263 261 261 264 266 266 265 273 277 280 282 282 280 281 305
263 260 252 242 240 245 242 235 239 241 237 232 227 229 239 241 245 245 246 244 247 245 247 249 252 253 257 259 262 262 261 262 264 265 265 269 273 278 282 282 281 281 286
269 268 265 255 239 234 237 238 240 239 236 229 229 239 239 242 245 245 246 247 248 246 245 247 251 252 255 259 261 259 259 260 263 261 261 265 273 276 277 278 278 280 287
266 264 260 245 229 228 236 241 243 243 244 240 237 237 240 239 242 247 246 244 247 248 245 246 248 251 252 257 262 260 262 258 257 259 259 263 269 272 273 276 278 279 279
256 249 233 229 218 239 234 236 241 239 241 243 244 241 239 236 245 245 247 249 249 249 248 244 246 250 250 245 250 258 256 258 254 254 258 263 268 270 271 274 279 278 277
248 237 214 210 225 219 217 217 220 221 234 248 255 249 241 238 240 241 245 246 245 246 242 244 250 253 253 251 247 242 248 250 252 254 256 263 265 263 267 274 278 283 278
253 252 207 201 210 218 217 233 241 248 260 259 265 256 241 236 238 242 249 239 237 235 239 244 254 254 254 254 261 240 237 244 250 252 251 257 252 259 262 267 270 277 279
113 314 220 209 246 186 226 248 264 262 260 258 258 254 240 238 232 243 267 252 237 232 237 247 253 263 268 258 249 233 233 229 249 252 254 250 246 249 254 259 265 269 275
159 96 114 145 153 206 227 241 246 253 256 251 252 242 243 237 239 242 270 273 243 230 236 251 259 261 268 254 259 245 236 232 240 248 250 249 249 249 252 255 257 263 270
129 142 136 123 135 149 153 149 130 144 177 214 222 238 237 240 246 255 255 257 251 247 253 260 259 262 274 256 243 245 242 243 245 246 252 252 252 252 256 258 260 259 259
99 108 118 119 119 119 115 106 116 127 121 86 174 228 244 233 239 243 243 234 228 236 242 244 243 269 272 267 252 243 249 251 243 244 250 261 258 255 253 255 261 257 257
109 129 154 165 158 177 176 190 163 126 151 293 246 247 253 265 260 257 247 238 251 258 253 252 249 256 277 264 272 267 252 255 258 256 249 257 252 252 255 255 250 257 243
288 149 237 264 189 211 225 221 237 235 235 247 246 253 259 261 244 246 251 252 263 251 240 240 254 251 250 258 271 268 269 265 258 259 263 256 251 255 261 260 260 260 269
5 43 54 257 251 225 230 246 250 244 243 251 256 260 257 256 254 249 245 251 251 250 246 244 253 260 264 266 273 272 271 269 263 258 256 257 255 257 262 262 251 258 263
307 325 334 330 8 72 119 197 238 252 259 256 246 242 245 260 266 262 259 262 266 270 270 268 263 261 263 265 268 272 273 273 272 270 267 265 264 263 263 261 263 265 266
280 257 256 259 265 30 48 8 348 296 288 296 298 292 290 287 278 272 269 271 273 273 274 275 275 274 273 273 274 277 278 278 277 277 277 277 277 277 276 273 270 269 268
31 353 292 287 314 300 308 279 304 310 312 301 290 291 292 295 293 291 287 280 277 273 276 278 278 280 282 283 284 285 284 284 284 285 284 282 280 278 278 277 277 276 275
24 3 323 295 311 325 342 350 334 311 293 294 300 283 287 287 287 285 283 282 281 283 284 283 280 283 286 289 290 291 292 292 291 290 289 289 289 287 284 282 279 277 276
24 6 349 336 323 313 308 304 308 308 308 307 306 304 309 303 298 295 285 283 280 278 278 279 278 278 278 278 279 280 281 284 286 288 288 288 290 290 291 291 289 284 277
8 349 335 327 312 308 304 303 300 298 295 292 296 294 296 295 294 295 294 293 290 287 284 280 279 280 279 279 281 282 282 282 284 284 285 285 285 286 287 288 289 288 284
354 347 334 322 315 311 307 305 301 295 290 287 287 291 290 288 289 291 293 293 290 285 282 282 284 285 286 285 286 285 286 287 288 289 289 291 293 294 294 294 292 293 291
323 325 322 319 312 307 309 307 302 298 295 293 289 284 279 287 292 292 287 286 286 290 294 294 290 291 291 290 290 289 288 286 285 285 288 291 292 291 287 287 288 294 293
293 303 306 307 306 305 304 298 297 296 294 291 288 282 276 274 271 266 271 275 278 280 287 291 293 296 295 292 289 290 290 284 277 282 280 284 286 289 286 287 287 292 294
300 305 305 305 302 297 295 295 295 296 295 291 286 283 278 271 268 267 261 262 271 279 282 283 284 283 285 288 290 289 290 288 282 277 277 278 283 280 282 284 289 294 302
294 295 299 304 305 302 299 297 295 292 289 286 282 279 278 279 275 270 272 271 271 273 277 277 278 285 291 288 285 287 284 283 286 285 277 277 276 278 279 281 286 290 292
Height
3104 3104 3104 3106 3107 3111 3115 3117 3117 3119 3122 3129 3136 3138 3140 3142 3143 3146 3150 3151 3152 3155 3158 3160 3161 3162 3163 3164 3165 3165 3166 3167 3168 3168 3168 3166 3166 3165 3164 3163 3162 3162 3160
3096 3096 3097 3097 3097 3102 3105 3105 3110 3113 3118 3120 3122 3130 3132 3134 3136 3138 3141 3147 3147 3148 3152 3154 3155 3155 3156 3158 3159 3160 3161 3162 3162 3162 3162 3161 3161 3160 3159 3159 3158 3156 3156
3087 3086 3087 3088 3089 3091 3094 3096 3101 3104 3110 3112 3115 3118 3122 3124 3126 3130 3133 3136 3140 3141 3144 3147 3149 3149 3150 3151 3153 3154 3154 3156 3157 3157 3157 3156 3156 3156 3154 3154 3154 3153 3152
3077 3076 3076 3078 3079 3081 3083 3085 3089 3093 3098 3102 3106 3109 3111 3113 3117 3120 3124 3128 3132 3135 3138 3139 3142 3143 3144 3145 3146 3149 3149 3150 3151 3151 3152 3152 3153 3151 3150 3150 3149 3148 3148
3069 3068 3067 3067 3069 3072 3075 3077 3079 3081 3084 3089 3092 3096 3100 3103 3106 3111 3115 3120 3124 3128 3131 3133 3134 3136 3137 3138 3140 3142 3144 3145 3145 3147 3146 3146 3147 3146 3146 3146 3145 3144 3143
3059 3059 3061 3061 3065 3067 3069 3069 3070 3071 3075 3080 3083 3085 3089 3094 3097 3102 3106 3109 3114 3118 3122 3125 3126 3128 3129 3129 3130 3136 3138 3139 3140 3140 3141 3141 3142 3141 3141 3142 3140 3139 3138
3053 3052 3055 3057 3060 3061 3063 3064 3066 3068 3071 3074 3074 3075 3080 3085 3089 3093 3098 3100 3104 3108 3113 3117 3118 3120 3122 3124 3124 3126 3130 3132 3133 3135 3135 3136 3136 3136 3136 3136 3136 3135 3134
3051 3049 3049 3054 3056 3059 3060 3062 3064 3066 3068 3069 3069 3071 3072 3076 3082 3086 3087 3090 3093 3097 3101 3106 3109 3111 3112 3114 3114 3115 3119 3123 3126 3127 3129 3130 3131 3131 3132 3132 3132 3131 3131
3046 3043 3043 3050 3056 3058 3060 3060 3060 3062 3063 3064 3065 3066 3068 3071 3075 3077 3077 3078 3081 3087 3091 3096 3098 3100 3100 3100 3103 3106 3107 3110 3118 3120 3121 3123 3124 3125 3126 3126 3127 3127 3126
3043 3046 3042 3050 3054 3056 3058 3058 3059 3059 3059 3060 3061 3062 3063 3065 3067 3070 3069 3070 3071 3075 3082 3085 3088 3089 3090 3092 3095 3098 3101 3104 3108 3112 3115 3116 3117 3119 3119 3119 3121 3121 3121
3046 3048 3050 3052 3055 3057 3058 3057 3058 3057 3057 3057 3058 3059 3061 3061 3063 3065 3065 3069 3071 3073 3075 3079 3082 3082 3082 3084 3089 3091 3095 3097 3100 3104 3107 3109 3110 3111 3113 3113 3114 3114 3114
3051 3051 3052 3052 3055 3057 3056 3057 3057 3057 3056 3057 3059 3060 3061 3061 3062 3062 3063 3066 3068 3070 3073 3074 3075 3077 3077 3078 3082 3085 3088 3091 3092 3094 3097 3101 3103 3104 3105 3105 3106 3104 3106
3053 3053 3053 3053 3053 3055 3056 3058 3057 3056 3055 3059 3059 3058 3060 3061 3060 3061 3062 3062 3064 3066 3067 3068 3070 3072 3073 3076 3077 3078 3080 3081 3083 3085 3084 3089 3091 3093 3094 3095 3098 3096 3094
3053 3053 3053 3053 3053 3054 3055 3055 3055 3055 3056 3059 3058 3058 3058 3060 3060 3059 3059 3061 3061 3063 3064 3066 3068 3068 3070 3071 3072 3073 3073 3073 3074 3074 3075 3078 3080 3082 3085 3084 3084 3086 3084
3052 3052 3051 3053 3052 3053 3053 3053 3053 3054 3054 3058 3055 3055 3056 3058 3057 3057 3058 3059 3060 3062 3063 3063 3064 3064 3066 3066 3066 3066 3067 3067 3068 3067 3068 3069 3070 3071 3073 3074 3073 3073 3072
3053 3052 3052 3052 3052 3052 3051 3052 3053 3054 3054 3055 3055 3055 3056 3056 3056 3056 3056 3056 3057 3059 3058 3058 3059 3060 3061 3060 3060 3060 3060 3061 3060 3061 3061 3061 3061 3061 3061 3063 3063 3062 3061
3052 3053 3052 3051 3050 3050 3051 3052 3053 3052 3052 3052 3053 3054 3054 3055 3053 3054 3053 3053 3053 3054 3054 3054 3053 3054 3055 3054 3054 3053 3054 3052 3052 3052 3051 3052 3051 3051 3051 3051 3051 3050 3049
3052 3052 3052 3052 3052 3052 3052 3052 3051 3051 3051 3051 3052 3051 3050 3050 3050 3050 3049 3050 3049 3049 3048 3049 3048 3048 3048 3048 3047 3048 3046 3045 3044 3043 3042 3042 3042 3041 3041 3041 3040 3040 3038
3052 3052 3052 3052 3052 3051 3051 3050 3049 3049 3049 3049 3048 3048 3048 3047 3047 3047 3047 3047 3046 3043 3044 3043 3042 3042 3042 3041 3041 3041 3038 3038 3037 3036 3035 3034 3034 3033 3032 3030 3029 3028 3027
3052 3051 3051 3051 3051 3050 3049 3049 3049 3048 3048 3048 3047 3046 3043 3044 3043 3042 3041 3041 3039 3038 3038 3036 3035 3035 3035 3035 3034 3033 3032 3032 3030 3030 3028 3026 3026 3025 3023 3021 3019 3018 3016
3050 3050 3049 3048 3047 3047 3046 3045 3045 3045 3045 3044 3042 3041 3041 3040 3039 3037 3036 3035 3035 3033 3031 3031 3030 3029 3029 3029 3028 3026 3026 3025 3024 3022 3021 3019 3018 3017 3014 3013 3012 3010 3006
3049 3048 3047 3047 3045 3045 3043 3042 3041 3041 3040 3039 3038 3038 3036 3035 3034 3033 3031 3029 3027 3026 3025 3024 3023 3021 3020 3020 3018 3017 3017 3016 3015 3013 3013 3011 3010 3008 3005 3003 3002 3000 2997
3050 3049 3048 3047 3045 3042 3041 3040 3039 3038 3037 3036 3035 3034 3034 3034 3032 3029 3027 3026 3024 3020 3018 3016 3015 3014 3011 3010 3009 3009 3007 3006 3005 3003 3002 3002 3002 2999 2997 2994 2993 2991 2988
3045 3045 3043 3041 3041 3038 3038 3036 3035 3033 3031 3029 3028 3027 3025 3025 3025 3025 3024 3022 3019 3015 3012 3010 3008 3006 3005 3002 3001 3000 2999 2998 2997 2996 2994 2993 2992 2991 2989 2986 2984 2982 2979
3041 3039 3038 3036 3034 3033 3030 3029 3027 3025 3023 3021 3018 3017 3016 3014 3013 3012 3010 3009 3008 3007 3005 3002 3000 2999 2997 2996 2996 2994 2992 2990 2989 2988 2986 2984 2983 2981 2979 2978 2976 2974 2970
3035 3033 3032 3029 3027 3024 3022 3020 3018 3015 3012 3011 3010 3007 3006 3005 3001 2999 2996 2995 2994 2993 2992 2992 2993 2991 2989 2987 2985 2986 2984 2983 2980 2978 2975 2974 2973 2972 2972 2972 2970 2967 2963